Time,TemperatureF,DewpointF,PressureIn,WindDirection,WindDirectionDegrees,WindSpeedMPH,WindSpeedGustMPH,Humidity,HourlyPrecipIn,Conditions,Clouds,dailyrainin,SoftwareType,DateUTC
2013-10-15 00:03:00,56.0,41.9,29.92,WNW,298,0.0,0.0,59,0.00,,,0.00,Wunderground v.1.15,2013-10-15 07:03:00,
2013-10-15 00:09:00,55.9,41.8,29.92,WNW,298,0.0,0.0,59,0.00,,,0.00,Wunderground v.1.15,2013-10-15 07:09:00,
2013-10-15 00:14:00,55.6,42.4,29.92,WNW,298,0.0,0.0,61,0.00,,,0.00,Wunderground v.1.15,2013-10-15 07:14:00,
2013-10-15 00:20:00,55.0,42.2,29.92,WNW,298,0.0,0.0,62,0.00,,,0.00,Wunderground v.1.15,2013-10-15 07:20:00,
2013-10-15 00:25:00,54.4,42.1,29.92,WNW,298,1.0,1.0,63,0.00,,,0.00,Wunderground v.1.15,2013-10-15 07:25:00,
2013-10-15 00:30:00,53.9,41.6,29.92,WNW,298,0.0,0.0,63,0.00,,,0.00,Wunderground v.1.15,2013-10-15 07:30:00,
2013-10-15 00:36:00,53.9,42.0,29.92,WNW,298,0.0,0.0,64,0.00,,,0.00,Wunderground v.1.15,2013-10-15 07:36:00,
2013-10-15 00:41:00,53.9,42.0,29.92,WNW,298,0.0,0.0,64,0.00,,,0.00,Wunderground v.1.15,2013-10-15 07:41:00,
2013-10-15 00:46:00,53.8,41.9,29.92,WNW,298,0.0,0.0,64,0.00,,,0.00,Wunderground v.1.15,2013-10-15 07:46:00,
2013-10-15 00:52:00,53.8,41.9,29.92,WNW,298,0.0,0.0,64,0.00,,,0.00,Wunderground v.1.15,2013-10-15 07:52:00,
2013-10-15 00:58:00,53.6,42.1,29.92,WNW,298,0.0,0.0,65,0.00,,,0.00,Wunderground v.1.15,2013-10-15 07:58:00,
2013-10-15 01:03:00,53.5,42.0,29.92,WNW,298,0.0,0.0,65,0.00,,,0.00,Wunderground v.1.15,2013-10-15 08:03:00,
2013-10-15 01:09:00,53.3,41.8,29.92,WNW,298,0.0,0.0,65,0.00,,,0.00,Wunderground v.1.15,2013-10-15 08:09:00,
2013-10-15 01:14:00,53.2,41.7,29.92,WNW,298,0.0,0.0,65,0.00,,,0.00,Wunderground v.1.15,2013-10-15 08:14:00,
2013-10-15 01:19:00,53.2,42.1,29.91,WNW,298,0.0,0.0,66,0.00,,,0.00,Wunderground v.1.15,2013-10-15 08:19:00,
2013-10-15 01:25:00,52.9,41.4,29.91,WNW,298,0.0,0.0,65,0.00,,,0.00,Wunderground v.1.15,2013-10-15 08:25:00,
2013-10-15 01:30:00,52.6,41.6,29.91,WNW,298,0.0,0.0,66,0.00,,,0.00,Wunderground v.1.15,2013-10-15 08:30:00,
2013-10-15 01:35:00,52.5,41.5,29.91,WNW,298,0.0,0.0,66,0.00,,,0.00,Wunderground v.1.15,2013-10-15 08:35:00,
2013-10-15 01:40:00,52.6,41.6,29.91,WNW,298,0.0,0.0,66,0.00,,,0.00,Wunderground v.1.15,2013-10-15 08:40:00,
2013-10-15 01:46:00,52.9,41.4,29.91,WNW,298,0.0,0.0,65,0.00,,,0.00,Wunderground v.1.15,2013-10-15 08:46:00,
2013-10-15 01:51:00,53.2,41.7,29.91,WNW,298,0.0,0.0,65,0.00,,,0.00,Wunderground v.1.15,2013-10-15 08:51:00,
2013-10-15 01:52:00,53.2,41.7,29.91,WNW,298,0.0,0.0,65,0.00,,,0.00,Wunderground v.1.15,2013-10-15 08:52:00,
2013-10-15 01:57:00,53.2,41.7,29.91,WNW,298,0.0,0.0,65,0.00,,,0.00,Wunderground v.1.15,2013-10-15 08:57:00,
2013-10-15 02:02:00,53.2,41.7,29.90,WNW,298,0.0,0.0,65,0.00,,,0.00,Wunderground v.1.15,2013-10-15 09:02:00,
2013-10-15 02:07:00,53.2,41.7,29.90,WNW,298,0.0,0.0,65,0.00,,,0.00,Wunderground v.1.15,2013-10-15 09:07:00,
2013-10-15 02:12:00,53.5,41.6,29.90,WNW,298,0.0,0.0,64,0.00,,,0.00,Wunderground v.1.15,2013-10-15 09:12:00,
2013-10-15 02:17:00,53.9,41.6,29.90,WNW,298,0.0,0.0,63,0.00,,,0.00,Wunderground v.1.15,2013-10-15 09:17:00,
2013-10-15 02:22:00,54.1,41.8,29.90,WNW,298,0.0,0.0,63,0.00,,,0.00,Wunderground v.1.15,2013-10-15 09:22:00,
2013-10-15 02:27:00,53.9,41.6,29.90,WNW,298,0.0,0.0,63,0.00,,,0.00,Wunderground v.1.15,2013-10-15 09:27:00,
2013-10-15 02:32:00,53.9,41.6,29.90,WNW,298,0.0,2.0,63,0.00,,,0.00,Wunderground v.1.15,2013-10-15 09:32:00,
2013-10-15 02:38:00,53.8,41.9,29.90,WNW,298,0.0,2.0,64,0.00,,,0.00,Wunderground v.1.15,2013-10-15 09:38:00,
2013-10-15 02:43:00,53.3,41.8,29.90,WNW,298,0.0,0.0,65,0.00,,,0.00,Wunderground v.1.15,2013-10-15 09:43:00,
2013-10-15 02:48:00,53.1,41.6,29.89,WNW,298,0.0,0.0,65,0.00,,,0.00,Wunderground v.1.15,2013-10-15 09:48:00,
2013-10-15 02:53:00,52.8,41.4,29.89,WNW,298,0.0,0.0,65,0.00,,,0.00,Wunderground v.1.15,2013-10-15 09:53:00,
2013-10-15 02:58:00,52.5,41.5,29.89,WNW,298,0.0,2.0,66,0.00,,,0.00,Wunderground v.1.15,2013-10-15 09:58:00,
2013-10-15 03:03:00,52.5,41.5,29.89,WNW,298,0.0,0.0,66,0.00,,,0.00,Wunderground v.1.15,2013-10-15 10:03:00,
2013-10-15 03:08:00,52.8,41.4,29.89,WNW,298,0.0,2.0,65,0.00,,,0.00,Wunderground v.1.15,2013-10-15 10:08:00,
2013-10-15 03:13:00,52.8,41.4,29.89,WNW,298,0.0,0.0,65,0.00,,,0.00,Wunderground v.1.15,2013-10-15 10:13:00,
2013-10-15 03:18:00,52.8,41.4,29.88,WNW,298,0.0,1.0,65,0.00,,,0.00,Wunderground v.1.15,2013-10-15 10:18:00,
2013-10-15 03:23:00,52.6,41.2,29.88,WNW,298,1.0,1.0,65,0.00,,,0.00,Wunderground v.1.15,2013-10-15 10:23:00,
2013-10-15 03:28:00,52.9,41.4,29.88,WNW,298,0.0,3.0,65,0.00,,,0.00,Wunderground v.1.15,2013-10-15 10:28:00,
2013-10-15 03:33:00,53.3,41.4,29.88,WNW,298,0.0,1.0,64,0.00,,,0.00,Wunderground v.1.15,2013-10-15 10:33:00,
2013-10-15 03:38:00,53.6,41.3,29.88,WNW,298,1.0,1.0,63,0.00,,,0.00,Wunderground v.1.15,2013-10-15 10:38:00,
2013-10-15 03:43:00,53.6,41.7,29.88,WNW,298,1.0,1.0,64,0.00,,,0.00,Wunderground v.1.15,2013-10-15 10:43:00,
2013-10-15 03:48:00,53.2,41.7,29.87,WNW,298,0.0,1.0,65,0.00,,,0.00,Wunderground v.1.15,2013-10-15 10:48:00,
2013-10-15 03:53:00,52.6,41.6,29.87,WNW,298,0.0,0.0,66,0.00,,,0.00,Wunderground v.1.15,2013-10-15 10:53:00,
2013-10-15 03:58:00,52.5,41.5,29.87,WNW,298,0.0,0.0,66,0.00,,,0.00,Wunderground v.1.15,2013-10-15 10:58:00,
2013-10-15 04:03:00,52.5,41.1,29.87,WNW,298,0.0,0.0,65,0.00,,,0.00,Wunderground v.1.15,2013-10-15 11:03:00,
2013-10-15 04:08:00,52.6,41.2,29.87,WNW,298,0.0,0.0,65,0.00,,,0.00,Wunderground v.1.15,2013-10-15 11:08:00,
2013-10-15 04:13:00,52.8,41.4,29.87,WNW,298,0.0,2.0,65,0.00,,,0.00,Wunderground v.1.15,2013-10-15 11:13:00,
2013-10-15 04:18:00,52.9,41.4,29.87,WNW,298,0.0,2.0,65,0.00,,,0.00,Wunderground v.1.15,2013-10-15 11:18:00,
2013-10-15 04:23:00,52.9,41.4,29.87,WNW,298,0.0,2.0,65,0.00,,,0.00,Wunderground v.1.15,2013-10-15 11:23:00,
2013-10-15 04:28:00,52.8,41.4,29.87,WNW,298,0.0,2.0,65,0.00,,,0.00,Wunderground v.1.15,2013-10-15 11:28:00,
2013-10-15 04:33:00,52.9,41.4,29.87,WNW,298,0.0,0.0,65,0.00,,,0.00,Wunderground v.1.15,2013-10-15 11:33:00,
2013-10-15 04:38:00,53.2,41.3,29.87,WNW,298,0.0,0.0,64,0.00,,,0.00,Wunderground v.1.15,2013-10-15 11:38:00,
2013-10-15 04:43:00,53.6,41.3,29.87,WNW,298,0.0,1.0,63,0.00,,,0.00,Wunderground v.1.15,2013-10-15 11:43:00,
2013-10-15 04:48:00,54.8,41.2,29.87,WNW,298,0.0,2.0,60,0.00,,,0.00,Wunderground v.1.15,2013-10-15 11:48:00,
2013-10-15 04:53:00,55.4,41.3,29.87,WNW,298,0.0,1.0,59,0.00,,,0.00,Wunderground v.1.15,2013-10-15 11:53:00,
2013-10-15 04:58:00,55.9,41.8,29.87,WNW,298,0.0,1.0,59,0.00,,,0.00,Wunderground v.1.15,2013-10-15 11:58:00,
2013-10-15 05:03:00,55.7,41.6,29.87,NW,313,2.0,3.0,59,0.00,,,0.00,Wunderground v.1.15,2013-10-15 12:03:00,
2013-10-15 05:08:00,55.7,42.0,29.87,NW,313,1.0,3.0,60,0.00,,,0.00,Wunderground v.1.15,2013-10-15 12:08:00,
2013-10-15 05:13:00,55.9,41.8,29.87,NW,313,1.0,2.0,59,0.00,,,0.00,Wunderground v.1.15,2013-10-15 12:13:00,
2013-10-15 05:18:00,56.5,41.9,29.87,NW,313,0.0,2.0,58,0.00,,,0.00,Wunderground v.1.15,2013-10-15 12:18:00,
2013-10-15 05:23:00,56.3,41.7,29.87,NW,313,0.0,1.0,58,0.00,,,0.00,Wunderground v.1.15,2013-10-15 12:23:00,
2013-10-15 05:28:00,56.3,41.7,29.87,NW,313,0.0,1.0,58,0.00,,,0.00,Wunderground v.1.15,2013-10-15 12:28:00,
2013-10-15 05:33:00,56.2,41.6,29.87,NW,313,0.0,0.0,58,0.00,,,0.00,Wunderground v.1.15,2013-10-15 12:33:00,
2013-10-15 05:38:00,56.5,41.4,29.87,NW,313,0.0,2.0,57,0.00,,,0.00,Wunderground v.1.15,2013-10-15 12:38:00,
2013-10-15 05:43:00,57.0,41.9,29.87,NW,313,0.0,0.0,57,0.00,,,0.00,Wunderground v.1.15,2013-10-15 12:43:00,
2013-10-15 05:48:00,57.0,41.9,29.87,NW,313,0.0,1.0,57,0.00,,,0.00,Wunderground v.1.15,2013-10-15 12:48:00,
2013-10-15 05:53:00,57.0,41.9,29.87,NW,313,0.0,0.0,57,0.00,,,0.00,Wunderground v.1.15,2013-10-15 12:53:00,
2013-10-15 05:58:00,56.7,41.6,29.87,NW,313,0.0,0.0,57,0.00,,,0.00,Wunderground v.1.15,2013-10-15 12:58:00,
2013-10-15 06:03:00,56.5,41.4,29.87,NW,313,0.0,1.0,57,0.00,,,0.00,Wunderground v.1.15,2013-10-15 13:03:00,
2013-10-15 06:08:00,56.3,41.3,29.87,NW,313,0.0,1.0,57,0.00,,,0.00,Wunderground v.1.15,2013-10-15 13:08:00,
2013-10-15 06:13:00,56.0,41.4,29.87,NW,313,1.0,2.0,58,0.00,,,0.00,Wunderground v.1.15,2013-10-15 13:13:00,
2013-10-15 06:18:00,56.0,41.4,29.87,NW,313,0.0,2.0,58,0.00,,,0.00,Wunderground v.1.15,2013-10-15 13:18:00,
2013-10-15 06:23:00,56.3,41.7,29.87,NW,313,0.0,2.0,58,0.00,,,0.00,Wunderground v.1.15,2013-10-15 13:23:00,
2013-10-15 06:28:00,56.5,41.4,29.87,NW,313,1.0,3.0,57,0.00,,,0.00,Wunderground v.1.15,2013-10-15 13:28:00,
2013-10-15 06:33:00,57.3,41.3,29.87,NW,309,0.0,3.0,55,0.00,,,0.00,Wunderground v.1.15,2013-10-15 13:33:00,
2013-10-15 06:38:00,57.5,41.4,29.87,NW,309,0.0,3.0,55,0.00,,,0.00,Wunderground v.1.15,2013-10-15 13:38:00,
2013-10-15 06:43:00,57.3,41.3,29.87,NW,309,0.0,1.0,55,0.00,,,0.00,Wunderground v.1.15,2013-10-15 13:43:00,
2013-10-15 06:48:00,57.5,41.4,29.87,NW,309,0.0,2.0,55,0.00,,,0.00,Wunderground v.1.15,2013-10-15 13:48:00,
2013-10-15 06:53:00,57.5,41.4,29.87,NW,309,2.0,3.0,55,0.00,,,0.00,Wunderground v.1.15,2013-10-15 13:53:00,
2013-10-15 06:58:00,58.0,41.0,29.87,NW,309,0.0,3.0,53,0.00,,,0.00,Wunderground v.1.15,2013-10-15 13:58:00,
2013-10-15 07:03:00,58.0,41.4,29.87,NW,309,0.0,1.0,54,0.00,,,0.00,Wunderground v.1.15,2013-10-15 14:03:00,
2013-10-15 07:08:00,57.5,41.4,29.87,NW,309,1.0,1.0,55,0.00,,,0.00,Wunderground v.1.15,2013-10-15 14:08:00,
2013-10-15 07:13:00,56.6,41.1,29.87,NW,309,0.0,3.0,56,0.00,,,0.00,Wunderground v.1.15,2013-10-15 14:13:00,
2013-10-15 07:18:00,56.5,41.0,29.88,NW,309,0.0,3.0,56,0.00,,,0.00,Wunderground v.1.15,2013-10-15 14:18:00,
2013-10-15 07:23:00,56.9,41.4,29.88,NW,309,0.0,1.0,56,0.00,,,0.00,Wunderground v.1.15,2013-10-15 14:23:00,
2013-10-15 07:28:00,57.8,41.3,29.88,NW,309,2.0,3.0,54,0.00,,,0.00,Wunderground v.1.15,2013-10-15 14:28:00,
2013-10-15 07:33:00,59.3,41.7,29.88,NW,309,0.0,2.0,52,0.00,,,0.00,Wunderground v.1.15,2013-10-15 14:33:00,
2013-10-15 07:38:00,59.6,41.9,29.88,NW,309,2.0,2.0,52,0.00,,,0.00,Wunderground v.1.15,2013-10-15 14:38:00,
2013-10-15 07:43:00,59.9,42.2,29.88,NW,309,0.0,0.0,52,0.00,,,0.00,Wunderground v.1.15,2013-10-15 14:43:00,
2013-10-15 07:48:00,60.4,42.7,29.88,NW,309,0.0,1.0,52,0.00,,,0.00,Wunderground v.1.15,2013-10-15 14:48:00,
2013-10-15 07:53:00,61.0,43.2,29.88,NW,309,0.0,1.0,52,0.00,,,0.00,Wunderground v.1.15,2013-10-15 14:53:00,
2013-10-15 07:59:00,61.6,43.8,29.88,NW,309,0.0,1.0,52,0.00,,,0.00,Wunderground v.1.15,2013-10-15 14:59:00,
2013-10-15 08:04:00,62.3,44.4,29.89,NW,309,0.0,1.0,52,0.00,,,0.00,Wunderground v.1.15,2013-10-15 15:04:00,
2013-10-15 08:09:00,63.1,45.2,29.89,NW,309,0.0,1.0,52,0.00,,,0.00,Wunderground v.1.15,2013-10-15 15:09:00,
2013-10-15 08:14:00,63.7,44.7,29.89,NW,309,0.0,0.0,50,0.00,,,0.00,Wunderground v.1.15,2013-10-15 15:14:00,
2013-10-15 08:19:00,64.3,45.3,29.89,NW,309,0.0,0.0,50,0.00,,,0.00,Wunderground v.1.15,2013-10-15 15:19:00,
2013-10-15 08:24:00,65.5,45.8,29.89,NW,309,0.0,0.0,49,0.00,,,0.00,Wunderground v.1.15,2013-10-15 15:24:00,
2013-10-15 08:29:00,66.4,46.7,29.89,NW,309,0.0,0.0,49,0.00,,,0.00,Wunderground v.1.15,2013-10-15 15:29:00,
2013-10-15 08:34:00,67.8,45.7,29.89,NW,309,0.0,0.0,45,0.00,,,0.00,Wunderground v.1.15,2013-10-15 15:34:00,
2013-10-15 08:39:00,68.9,45.5,29.89,NW,309,0.0,0.0,43,0.00,,,0.00,Wunderground v.1.15,2013-10-15 15:39:00,
2013-10-15 08:44:00,70.1,45.3,29.89,NW,309,0.0,0.0,41,0.00,,,0.00,Wunderground v.1.15,2013-10-15 15:44:00,
2013-10-15 08:49:00,71.1,46.2,29.89,NW,309,0.0,1.0,41,0.00,,,0.00,Wunderground v.1.15,2013-10-15 15:49:00,
2013-10-15 08:54:00,71.6,46.0,29.89,NW,309,0.0,1.0,40,0.00,,,0.00,Wunderground v.1.15,2013-10-15 15:54:00,
2013-10-15 08:59:00,72.1,44.4,29.89,NW,309,0.0,1.0,37,0.00,,,0.00,Wunderground v.1.15,2013-10-15 15:59:00,
2013-10-15 09:04:00,72.8,45.7,29.89,NW,309,0.0,1.0,38,0.00,,,0.00,Wunderground v.1.15,2013-10-15 16:04:00,
2013-10-15 09:09:00,73.2,44.6,29.89,East,85,2.0,2.0,36,0.00,,,0.00,Wunderground v.1.15,2013-10-15 16:09:00,
2013-10-15 09:14:00,73.5,44.9,29.89,ESE,107,0.0,2.0,36,0.00,,,0.00,Wunderground v.1.15,2013-10-15 16:14:00,
2013-10-15 09:19:00,73.9,44.5,29.89,ESE,107,1.0,3.0,35,0.00,,,0.00,Wunderground v.1.15,2013-10-15 16:19:00,
2013-10-15 09:24:00,74.4,45.7,29.89,ENE,65,0.0,3.0,36,0.00,,,0.00,Wunderground v.1.15,2013-10-15 16:24:00,
2013-10-15 09:29:00,74.9,44.6,29.89,East,93,1.0,5.0,34,0.00,,,0.00,Wunderground v.1.15,2013-10-15 16:29:00,
2013-10-15 09:34:00,75.6,44.5,29.89,ESE,108,2.0,4.0,33,0.00,,,0.00,Wunderground v.1.15,2013-10-15 16:34:00,
2013-10-15 09:39:00,76.3,43.4,29.89,ESE,122,2.0,5.0,31,0.00,,,0.00,Wunderground v.1.15,2013-10-15 16:39:00,
2013-10-15 09:44:00,76.5,42.7,29.89,ESE,115,3.0,5.0,30,0.00,,,0.00,Wunderground v.1.15,2013-10-15 16:44:00,
2013-10-15 09:49:00,76.5,42.7,29.89,ESE,110,2.0,5.0,30,0.00,,,0.00,Wunderground v.1.15,2013-10-15 16:49:00,
2013-10-15 09:54:00,76.3,43.4,29.89,ESE,108,0.0,9.0,31,0.00,,,0.00,Wunderground v.1.15,2013-10-15 16:54:00,
2013-10-15 09:59:00,76.8,42.1,29.89,ESE,107,1.0,9.0,29,0.00,,,0.00,Wunderground v.1.15,2013-10-15 16:59:00,
2013-10-15 10:04:00,76.8,42.1,29.89,East,89,4.0,6.0,29,0.00,,,0.00,Wunderground v.1.15,2013-10-15 17:04:00,
2013-10-15 10:09:00,76.8,41.2,29.89,SE,130,5.0,6.0,28,0.00,,,0.00,Wunderground v.1.15,2013-10-15 17:09:00,
2013-10-15 10:14:00,77.2,42.5,29.89,East,98,3.0,4.0,29,0.00,,,0.00,Wunderground v.1.15,2013-10-15 17:14:00,
2013-10-15 10:19:00,77.0,41.4,29.89,ESE,117,5.0,10.0,28,0.00,,,0.00,Wunderground v.1.15,2013-10-15 17:19:00,
2013-10-15 10:24:00,77.2,41.6,29.89,ESE,106,4.0,11.0,28,0.00,,,0.00,Wunderground v.1.15,2013-10-15 17:24:00,
2013-10-15 10:29:00,77.6,41.9,29.89,SE,141,6.0,11.0,28,0.00,,,0.00,Wunderground v.1.15,2013-10-15 17:29:00,
2013-10-15 10:34:00,77.9,42.2,29.89,ESE,119,3.0,9.0,28,0.00,,,0.00,Wunderground v.1.15,2013-10-15 17:34:00,
2013-10-15 10:39:00,77.7,41.0,29.89,ESE,118,4.0,9.0,27,0.00,,,0.00,Wunderground v.1.15,2013-10-15 17:39:00,
2013-10-15 10:44:00,77.4,40.8,29.89,ESE,105,1.0,9.0,27,0.00,,,0.00,Wunderground v.1.15,2013-10-15 17:44:00,
2013-10-15 10:49:00,77.4,40.8,29.89,ESE,107,3.0,10.0,27,0.00,,,0.00,Wunderground v.1.15,2013-10-15 17:49:00,
2013-10-15 10:54:00,77.6,41.9,29.89,ESE,102,4.0,9.0,28,0.00,,,0.00,Wunderground v.1.15,2013-10-15 17:54:00,
2013-10-15 10:59:00,78.3,42.5,29.89,ESE,111,3.0,9.0,28,0.00,,,0.00,Wunderground v.1.15,2013-10-15 17:59:00,
2013-10-15 11:04:00,79.0,42.2,29.88,South,176,2.0,3.0,27,0.00,,,0.00,Wunderground v.1.15,2013-10-15 18:04:00,
2013-10-15 11:09:00,78.8,44.7,29.88,West,275,0.0,3.0,30,0.00,,,0.00,Wunderground v.1.15,2013-10-15 18:09:00,
2013-10-15 11:14:00,78.6,43.7,29.88,SSW,200,0.0,3.0,29,0.00,,,0.00,Wunderground v.1.15,2013-10-15 18:14:00,
2013-10-15 11:19:00,79.0,44.9,29.88,SSE,168,0.0,3.0,30,0.00,,,0.00,Wunderground v.1.15,2013-10-15 18:19:00,
2013-10-15 11:24:00,78.5,44.5,29.88,West,265,0.0,5.0,30,0.00,,,0.00,Wunderground v.1.15,2013-10-15 18:24:00,
2013-10-15 11:29:00,78.5,45.3,29.88,West,280,0.0,5.0,31,0.00,,,0.00,Wunderground v.1.15,2013-10-15 18:29:00,
2013-10-15 11:34:00,78.6,45.4,29.88,West,275,0.0,4.0,31,0.00,,,0.00,Wunderground v.1.15,2013-10-15 18:34:00,
2013-10-15 11:39:00,78.8,42.9,29.88,SSW,208,0.0,4.0,28,0.00,,,0.00,Wunderground v.1.15,2013-10-15 18:39:00,
2013-10-15 11:44:00,79.4,44.4,29.88,North,352,0.0,3.0,29,0.00,,,0.00,Wunderground v.1.15,2013-10-15 18:44:00,
2013-10-15 11:49:00,79.8,46.5,29.88,North,353,0.0,3.0,31,0.00,,,0.00,Wunderground v.1.15,2013-10-15 18:49:00,
2013-10-15 11:54:00,79.2,45.9,29.88,SW,221,2.0,6.0,31,0.00,,,0.00,Wunderground v.1.15,2013-10-15 18:54:00,
2013-10-15 11:59:00,79.2,45.9,29.88,West,271,0.0,6.0,31,0.00,,,0.00,Wunderground v.1.15,2013-10-15 18:59:00,
2013-10-15 12:04:00,79.0,45.8,29.88,NW,309,0.0,4.0,31,0.00,,,0.00,Wunderground v.1.15,2013-10-15 19:04:00,
2013-10-15 12:09:00,79.4,46.1,29.88,South,181,0.0,4.0,31,0.00,,,0.00,Wunderground v.1.15,2013-10-15 19:09:00,
2013-10-15 12:14:00,79.0,44.9,29.88,SSW,210,2.0,9.0,30,0.00,,,0.00,Wunderground v.1.15,2013-10-15 19:14:00,
2013-10-15 12:19:00,79.0,44.9,29.87,NNW,344,2.0,9.0,30,0.00,,,0.00,Wunderground v.1.15,2013-10-15 19:19:00,
2013-10-15 12:24:00,78.3,43.4,29.87,West,280,4.0,6.0,29,0.00,,,0.00,Wunderground v.1.15,2013-10-15 19:24:00,
2013-10-15 12:30:00,78.8,43.8,29.87,North,349,0.0,2.0,29,0.00,,,0.00,Wunderground v.1.15,2013-10-15 19:30:00,
2013-10-15 12:34:00,79.4,43.4,29.87,WSW,243,1.0,5.0,28,0.00,,,0.00,Wunderground v.1.15,2013-10-15 19:34:00,
2013-10-15 12:39:00,79.2,43.3,29.87,NNW,336,4.0,4.0,28,0.00,,,0.00,Wunderground v.1.15,2013-10-15 19:39:00,
2013-10-15 12:44:00,78.6,43.7,29.87,West,261,3.0,5.0,29,0.00,,,0.00,Wunderground v.1.15,2013-10-15 19:44:00,
2013-10-15 12:49:00,78.6,42.8,29.87,SSW,210,2.0,2.0,28,0.00,,,0.00,Wunderground v.1.15,2013-10-15 19:49:00,
2013-10-15 12:55:00,78.5,43.6,29.87,North,2,0.0,5.0,29,0.00,,,0.00,Wunderground v.1.15,2013-10-15 19:55:00,
2013-10-15 13:00:00,78.6,46.3,29.87,SSE,167,3.0,3.0,32,0.00,,,0.00,Wunderground v.1.15,2013-10-15 20:00:00,
2013-10-15 13:05:00,78.1,46.6,29.86,SW,220,0.0,6.0,33,0.00,,,0.00,Wunderground v.1.15,2013-10-15 20:05:00,
2013-10-15 13:10:00,77.7,44.6,29.86,West,277,3.0,3.0,31,0.00,,,0.00,Wunderground v.1.15,2013-10-15 20:10:00,
2013-10-15 13:15:00,77.4,44.4,29.86,NNW,343,5.0,6.0,31,0.00,,,0.00,Wunderground v.1.15,2013-10-15 20:15:00,
2013-10-15 13:20:00,77.2,43.4,29.86,North,8,0.0,2.0,30,0.00,,,0.00,Wunderground v.1.15,2013-10-15 20:20:00,
2013-10-15 13:25:00,77.7,42.9,29.86,North,11,0.0,4.0,29,0.00,,,0.00,Wunderground v.1.15,2013-10-15 20:25:00,
2013-10-15 13:30:00,77.6,42.8,29.86,NNW,332,5.0,7.0,29,0.00,,,0.00,Wunderground v.1.15,2013-10-15 20:30:00,
2013-10-15 13:35:00,77.4,43.5,29.85,SE,131,2.0,8.0,30,0.00,,,0.00,Wunderground v.1.15,2013-10-15 20:35:00,
2013-10-15 13:40:00,78.3,42.5,29.85,West,264,0.0,2.0,28,0.00,,,0.00,Wunderground v.1.15,2013-10-15 20:40:00,
2013-10-15 13:45:00,78.6,41.8,29.85,South,175,4.0,6.0,27,0.00,,,0.00,Wunderground v.1.15,2013-10-15 20:45:00,
2013-10-15 13:50:00,78.5,42.7,29.85,NNE,15,0.0,1.0,28,0.00,,,0.00,Wunderground v.1.15,2013-10-15 20:50:00,
2013-10-15 13:55:00,78.6,42.8,29.85,West,274,1.0,4.0,28,0.00,,,0.00,Wunderground v.1.15,2013-10-15 20:55:00,
2013-10-15 14:00:00,78.6,43.7,29.85,East,93,0.0,1.0,29,0.00,,,0.00,Wunderground v.1.15,2013-10-15 21:00:00,
2013-10-15 14:05:00,78.6,42.8,29.84,East,100,1.0,4.0,28,0.00,,,0.00,Wunderground v.1.15,2013-10-15 21:05:00,
2013-10-15 14:10:00,78.3,42.5,29.84,East,86,1.0,2.0,28,0.00,,,0.00,Wunderground v.1.15,2013-10-15 21:10:00,
2013-10-15 14:15:00,78.1,42.3,29.84,SE,135,0.0,5.0,28,0.00,,,0.00,Wunderground v.1.15,2013-10-15 21:15:00,
2013-10-15 14:20:00,77.9,43.1,29.84,NNW,330,0.0,2.0,29,0.00,,,0.00,Wunderground v.1.15,2013-10-15 21:20:00,
2013-10-15 14:25:00,77.9,43.1,29.84,SW,225,0.0,5.0,29,0.00,,,0.00,Wunderground v.1.15,2013-10-15 21:25:00,
2013-10-15 14:30:00,78.1,43.2,29.84,SSE,152,1.0,2.0,29,0.00,,,0.00,Wunderground v.1.15,2013-10-15 21:30:00,
2013-10-15 14:35:00,78.1,43.2,29.84,NE,55,2.0,6.0,29,0.00,,,0.00,Wunderground v.1.15,2013-10-15 21:35:00,
2013-10-15 14:40:00,77.9,43.1,29.84,NNE,25,2.0,2.0,29,0.00,,,0.00,Wunderground v.1.15,2013-10-15 21:40:00,
2013-10-15 14:45:00,77.2,43.4,29.84,NE,41,2.0,4.0,30,0.00,,,0.00,Wunderground v.1.15,2013-10-15 21:45:00,
2013-10-15 14:50:00,76.8,43.9,29.84,South,177,2.0,3.0,31,0.00,,,0.00,Wunderground v.1.15,2013-10-15 21:50:00,
2013-10-15 14:55:00,76.5,43.6,29.84,NNW,348,0.0,3.0,31,0.00,,,0.00,Wunderground v.1.15,2013-10-15 21:55:00,
2013-10-15 15:00:00,76.1,43.3,29.83,East,96,0.0,3.0,31,0.00,,,0.00,Wunderground v.1.15,2013-10-15 22:00:00,
2013-10-15 15:05:00,75.6,43.7,29.83,SSW,195,1.0,4.0,32,0.00,,,0.00,Wunderground v.1.15,2013-10-15 22:05:00,
2013-10-15 15:10:00,75.4,43.5,29.83,SW,222,3.0,3.0,32,0.00,,,0.00,Wunderground v.1.15,2013-10-15 22:10:00,
2013-10-15 15:15:00,75.4,42.7,29.83,North,9,1.0,7.0,31,0.00,,,0.00,Wunderground v.1.15,2013-10-15 22:15:00,
2013-10-15 15:20:00,75.3,43.4,29.83,SE,141,0.0,1.0,32,0.00,,,0.00,Wunderground v.1.15,2013-10-15 22:20:00,
2013-10-15 15:25:00,75.1,43.2,29.83,North,359,0.0,5.0,32,0.00,,,0.00,Wunderground v.1.15,2013-10-15 22:25:00,
2013-10-15 15:30:00,75.3,43.4,29.83,NNW,338,0.0,2.0,32,0.00,,,0.00,Wunderground v.1.15,2013-10-15 22:30:00,
2013-10-15 15:35:00,75.4,43.5,29.83,WSW,239,0.0,4.0,32,0.00,,,0.00,Wunderground v.1.15,2013-10-15 22:35:00,
2013-10-15 15:40:00,75.3,43.4,29.83,WNW,290,0.0,1.0,32,0.00,,,0.00,Wunderground v.1.15,2013-10-15 22:40:00,
2013-10-15 15:45:00,75.1,44.0,29.83,East,82,1.0,5.0,33,0.00,,,0.00,Wunderground v.1.15,2013-10-15 22:45:00,
2013-10-15 15:50:00,74.6,44.4,29.83,NW,322,0.0,1.0,34,0.00,,,0.00,Wunderground v.1.15,2013-10-15 22:50:00,
2013-10-15 15:55:00,74.0,43.8,29.83,NW,316,7.0,7.0,34,0.00,,,0.00,Wunderground v.1.15,2013-10-15 22:55:00,
2013-10-15 16:00:00,73.9,44.5,29.83,West,262,0.0,2.0,35,0.00,,,0.00,Wunderground v.1.15,2013-10-15 23:00:00,
2013-10-15 16:05:00,73.7,45.1,29.83,South,184,2.0,4.0,36,0.00,,,0.00,Wunderground v.1.15,2013-10-15 23:05:00,
2013-10-15 16:10:00,73.2,44.6,29.83,SE,139,0.0,4.0,36,0.00,,,0.00,Wunderground v.1.15,2013-10-15 23:10:00,
2013-10-15 16:15:00,72.7,44.9,29.82,West,275,0.0,4.0,37,0.00,,,0.00,Wunderground v.1.15,2013-10-15 23:15:00,
2013-10-15 16:20:00,72.1,45.1,29.82,NW,319,3.0,3.0,38,0.00,,,0.00,Wunderground v.1.15,2013-10-15 23:20:00,
2013-10-15 16:25:00,71.6,44.6,29.82,NNW,341,2.0,3.0,38,0.00,,,0.00,Wunderground v.1.15,2013-10-15 23:25:00,
2013-10-15 16:30:00,71.3,45.1,29.82,North,1,0.0,1.0,39,0.00,,,0.00,Wunderground v.1.15,2013-10-15 23:30:00,
2013-10-15 16:35:00,71.1,44.2,29.82,East,87,0.0,3.0,38,0.00,,,0.00,Wunderground v.1.15,2013-10-15 23:35:00,
2013-10-15 16:41:00,71.1,44.2,29.82,South,189,0.0,1.0,38,0.00,,,0.00,Wunderground v.1.15,2013-10-15 23:41:00,
2013-10-15 16:46:00,70.9,44.0,29.82,ESE,123,0.0,3.0,38,0.00,,,0.00,Wunderground v.1.15,2013-10-15 23:46:00,
2013-10-15 16:51:00,70.9,44.7,29.82,WNW,286,0.0,3.0,39,0.00,,,0.00,Wunderground v.1.15,2013-10-15 23:51:00,
2013-10-15 16:56:00,70.8,44.6,29.82,North,357,0.0,3.0,39,0.00,,,0.00,Wunderground v.1.15,2013-10-15 23:56:00,
2013-10-15 17:01:00,70.8,43.9,29.82,NNE,30,0.0,0.0,38,0.00,,,0.00,Wunderground v.1.15,2013-10-16 00:01:00,
2013-10-15 17:06:00,70.6,44.4,29.82,West,278,0.0,4.0,39,0.00,,,0.00,Wunderground v.1.15,2013-10-16 00:06:00,
2013-10-15 17:11:00,70.4,43.6,29.82,SSE,154,0.0,1.0,38,0.00,,,0.00,Wunderground v.1.15,2013-10-16 00:11:00,
2013-10-15 17:16:00,70.3,44.2,29.82,West,263,3.0,3.0,39,0.00,,,0.00,Wunderground v.1.15,2013-10-16 00:16:00,
2013-10-15 17:21:00,70.3,43.5,29.82,North,4,0.0,2.0,38,0.00,,,0.00,Wunderground v.1.15,2013-10-16 00:21:00,
2013-10-15 17:26:00,70.3,43.5,29.82,NNW,338,0.0,2.0,38,0.00,,,0.00,Wunderground v.1.15,2013-10-16 00:26:00,
2013-10-15 17:31:00,70.1,44.0,29.82,NNW,329,0.0,0.0,39,0.00,,,0.00,Wunderground v.1.15,2013-10-16 00:31:00,
2013-10-15 17:36:00,69.9,43.8,29.82,NNW,329,0.0,0.0,39,0.00,,,0.00,Wunderground v.1.15,2013-10-16 00:36:00,
2013-10-15 17:41:00,69.8,43.7,29.82,NNW,329,0.0,0.0,39,0.00,,,0.00,Wunderground v.1.15,2013-10-16 00:41:00,
2013-10-15 17:46:00,69.6,44.2,29.82,SE,143,0.0,3.0,40,0.00,,,0.00,Wunderground v.1.15,2013-10-16 00:46:00,
2013-10-15 17:51:00,69.4,44.0,29.82,SE,143,0.0,1.0,40,0.00,,,0.00,Wunderground v.1.15,2013-10-16 00:51:00,
2013-10-15 17:56:00,69.1,43.8,29.82,SE,143,0.0,1.0,40,0.00,,,0.00,Wunderground v.1.15,2013-10-16 00:56:00,
2013-10-15 18:01:00,68.9,44.2,29.82,SE,143,0.0,0.0,41,0.00,,,0.00,Wunderground v.1.15,2013-10-16 01:01:00,
2013-10-15 18:06:00,68.8,44.1,29.82,SSW,195,0.0,2.0,41,0.00,,,0.00,Wunderground v.1.15,2013-10-16 01:06:00,
2013-10-15 18:11:00,68.8,44.1,29.82,SSW,195,0.0,0.0,41,0.00,,,0.00,Wunderground v.1.15,2013-10-16 01:11:00,
2013-10-15 18:16:00,68.6,43.9,29.83,NNW,345,1.0,2.0,41,0.00,,,0.00,Wunderground v.1.15,2013-10-16 01:16:00,
2013-10-15 18:21:00,68.6,43.9,29.83,WSW,254,0.0,1.0,41,0.00,,,0.00,Wunderground v.1.15,2013-10-16 01:21:00,
2013-10-15 18:26:00,68.4,44.4,29.83,WSW,254,0.0,1.0,42,0.00,,,0.00,Wunderground v.1.15,2013-10-16 01:26:00,
2013-10-15 18:31:00,68.1,44.1,29.83,WSW,254,0.0,0.0,42,0.00,,,0.00,Wunderground v.1.15,2013-10-16 01:31:00,
2013-10-15 18:36:00,67.9,44.0,29.83,WSW,254,1.0,1.0,42,0.00,,,0.00,Wunderground v.1.15,2013-10-16 01:36:00,
2013-10-15 18:41:00,67.9,44.0,29.83,WSW,254,0.0,1.0,42,0.00,,,0.00,Wunderground v.1.15,2013-10-16 01:41:00,
2013-10-15 18:46:00,67.8,43.9,29.84,WSW,254,0.0,1.0,42,0.00,,,0.00,Wunderground v.1.15,2013-10-16 01:46:00,
2013-10-15 18:51:00,67.8,43.9,29.84,WSW,254,1.0,2.0,42,0.00,,,0.00,Wunderground v.1.15,2013-10-16 01:51:00,
2013-10-15 18:56:00,67.8,43.9,29.84,WSW,254,0.0,2.0,42,0.00,,,0.00,Wunderground v.1.15,2013-10-16 01:56:00,
2013-10-15 19:01:00,67.6,43.1,29.84,WSW,254,0.0,0.0,41,0.00,,,0.00,Wunderground v.1.15,2013-10-16 02:01:00,
2013-10-15 19:06:00,67.6,42.4,29.84,WSW,254,0.0,1.0,40,0.00,,,0.00,Wunderground v.1.15,2013-10-16 02:06:00,
2013-10-15 19:11:00,67.8,42.6,29.84,WSW,254,0.0,0.0,40,0.00,,,0.00,Wunderground v.1.15,2013-10-16 02:11:00,
2013-10-15 19:16:00,67.8,41.9,29.84,WSW,254,0.0,2.0,39,0.00,,,0.00,Wunderground v.1.15,2013-10-16 02:16:00,
2013-10-15 19:21:00,67.6,42.4,29.84,WSW,254,0.0,0.0,40,0.00,,,0.00,Wunderground v.1.15,2013-10-16 02:21:00,
2013-10-15 19:26:00,67.1,42.0,29.84,WSW,254,0.0,1.0,40,0.00,,,0.00,Wunderground v.1.15,2013-10-16 02:26:00,
2013-10-15 19:31:00,66.6,41.5,29.84,WSW,254,1.0,2.0,40,0.00,,,0.00,Wunderground v.1.15,2013-10-16 02:31:00,
2013-10-15 19:36:00,66.3,41.2,29.84,WSW,254,0.0,2.0,40,0.00,,,0.00,Wunderground v.1.15,2013-10-16 02:36:00,
2013-10-15 19:41:00,66.0,41.6,29.84,ESE,110,0.0,2.0,41,0.00,,,0.00,Wunderground v.1.15,2013-10-16 02:41:00,
2013-10-15 19:46:00,65.5,41.2,29.84,West,277,0.0,4.0,41,0.00,,,0.00,Wunderground v.1.15,2013-10-16 02:46:00,
2013-10-15 19:51:00,65.0,40.7,29.84,West,277,2.0,3.0,41,0.00,,,0.00,Wunderground v.1.15,2013-10-16 02:51:00,
2013-10-15 19:56:00,64.8,41.2,29.84,West,277,1.0,3.0,42,0.00,,,0.00,Wunderground v.1.15,2013-10-16 02:56:00,
2013-10-15 20:01:00,64.5,40.3,29.85,West,277,0.0,3.0,41,0.00,,,0.00,Wunderground v.1.15,2013-10-16 03:01:00,
2013-10-15 20:06:00,64.2,40.6,29.85,West,277,0.0,3.0,42,0.00,,,0.00,Wunderground v.1.15,2013-10-16 03:06:00,
2013-10-15 20:11:00,63.9,40.3,29.85,West,277,0.0,0.0,42,0.00,,,0.00,Wunderground v.1.15,2013-10-16 03:11:00,
2013-10-15 20:16:00,63.5,40.6,29.85,West,277,0.0,1.0,43,0.00,,,0.00,Wunderground v.1.15,2013-10-16 03:16:00,
2013-10-15 20:21:00,63.2,40.3,29.85,West,277,1.0,2.0,43,0.00,,,0.00,Wunderground v.1.15,2013-10-16 03:21:00,
2013-10-15 20:27:00,62.9,40.6,29.85,West,277,0.0,2.0,44,0.00,,,0.00,Wunderground v.1.15,2013-10-16 03:27:00,
2013-10-15 20:32:00,62.6,40.4,29.85,West,277,0.0,1.0,44,0.00,,,0.00,Wunderground v.1.15,2013-10-16 03:32:00,
2013-10-15 20:37:00,62.3,40.7,29.85,West,277,0.0,1.0,45,0.00,,,0.00,Wunderground v.1.15,2013-10-16 03:37:00,
2013-10-15 20:42:00,62.0,41.0,29.85,West,277,0.0,0.0,46,0.00,,,0.00,Wunderground v.1.15,2013-10-16 03:42:00,
2013-10-15 20:47:00,61.6,40.6,29.86,West,277,0.0,0.0,46,0.00,,,0.00,Wunderground v.1.15,2013-10-16 03:47:00,
2013-10-15 20:52:00,61.3,40.9,29.86,West,277,0.0,0.0,47,0.00,,,0.00,Wunderground v.1.15,2013-10-16 03:52:00,
2013-10-15 20:57:00,61.0,40.6,29.86,West,277,0.0,0.0,47,0.00,,,0.00,Wunderground v.1.15,2013-10-16 03:57:00,
2013-10-15 21:01:00,60.7,40.3,29.86,West,277,0.0,0.0,47,0.00,,,0.00,Wunderground v.1.15,2013-10-16 04:01:00,
2013-10-15 21:02:00,60.7,40.3,29.86,West,277,0.0,0.0,47,0.00,,,0.00,Wunderground v.1.15,2013-10-16 04:02:00,
2013-10-15 21:07:00,60.5,40.2,29.86,West,277,0.0,0.0,47,0.00,,,0.00,Wunderground v.1.15,2013-10-16 04:07:00,
2013-10-15 21:12:00,60.5,40.2,29.86,West,277,0.0,0.0,47,0.00,,,0.00,Wunderground v.1.15,2013-10-16 04:12:00,
2013-10-15 21:17:00,60.5,40.7,29.86,West,277,0.0,0.0,48,0.00,,,0.00,Wunderground v.1.15,2013-10-16 04:17:00,
2013-10-15 21:22:00,60.4,40.6,29.86,West,277,0.0,0.0,48,0.00,,,0.00,Wunderground v.1.15,2013-10-16 04:22:00,
2013-10-15 21:27:00,60.2,40.4,29.86,West,277,0.0,0.0,48,0.00,,,0.00,Wunderground v.1.15,2013-10-16 04:27:00,
2013-10-15 21:32:00,60.2,40.4,29.87,West,277,0.0,0.0,48,0.00,,,0.00,Wunderground v.1.15,2013-10-16 04:32:00,
2013-10-15 21:37:00,60.1,39.8,29.87,West,277,0.0,0.0,47,0.00,,,0.00,Wunderground v.1.15,2013-10-16 04:37:00,
2013-10-15 21:42:00,59.9,40.1,29.87,West,277,0.0,0.0,48,0.00,,,0.00,Wunderground v.1.15,2013-10-16 04:42:00,
2013-10-15 21:47:00,59.8,40.1,29.87,West,277,0.0,0.0,48,0.00,,,0.00,Wunderground v.1.15,2013-10-16 04:47:00,
2013-10-15 21:52:00,59.6,39.9,29.87,West,277,0.0,0.0,48,0.00,,,0.00,Wunderground v.1.15,2013-10-16 04:52:00,
2013-10-15 21:57:00,59.5,39.8,29.87,West,277,0.0,0.0,48,0.00,,,0.00,Wunderground v.1.15,2013-10-16 04:57:00,
2013-10-15 22:02:00,59.3,40.1,29.87,West,277,0.0,0.0,49,0.00,,,0.00,Wunderground v.1.15,2013-10-16 05:02:00,
2013-10-15 22:07:00,59.0,39.9,29.87,West,277,0.0,0.0,49,0.00,,,0.00,Wunderground v.1.15,2013-10-16 05:07:00,
2013-10-15 22:12:00,58.7,39.6,29.87,West,277,0.0,0.0,49,0.00,,,0.00,Wunderground v.1.15,2013-10-16 05:12:00,
2013-10-15 22:18:00,58.6,40.0,29.88,West,277,0.0,0.0,50,0.00,,,0.00,Wunderground v.1.15,2013-10-16 05:18:00,
2013-10-15 22:23:00,58.4,39.8,29.88,West,277,0.0,0.0,50,0.00,,,0.00,Wunderground v.1.15,2013-10-16 05:23:00,
2013-10-15 22:28:00,58.4,39.8,29.88,West,277,0.0,0.0,50,0.00,,,0.00,Wunderground v.1.15,2013-10-16 05:28:00,
2013-10-15 22:33:00,58.6,39.5,29.88,West,277,0.0,0.0,49,0.00,,,0.00,Wunderground v.1.15,2013-10-16 05:33:00,
2013-10-15 22:38:00,59.0,39.3,29.88,West,277,0.0,0.0,48,0.00,,,0.00,Wunderground v.1.15,2013-10-16 05:38:00,
2013-10-15 22:43:00,58.9,40.3,29.88,West,277,0.0,0.0,50,0.00,,,0.00,Wunderground v.1.15,2013-10-16 05:43:00,
2013-10-15 22:48:00,58.6,40.0,29.88,West,277,0.0,0.0,50,0.00,,,0.00,Wunderground v.1.15,2013-10-16 05:48:00,
2013-10-15 22:53:00,58.1,39.5,29.88,West,277,0.0,0.0,50,0.00,,,0.00,Wunderground v.1.15,2013-10-16 05:53:00,
2013-10-15 22:58:00,58.0,39.5,29.88,West,277,0.0,0.0,50,0.00,,,0.00,Wunderground v.1.15,2013-10-16 05:58:00,
2013-10-15 23:03:00,57.8,39.3,29.88,West,277,0.0,0.0,50,0.00,,,0.00,Wunderground v.1.15,2013-10-16 06:03:00,
2013-10-15 23:08:00,58.0,39.5,29.88,West,277,0.0,0.0,50,0.00,,,0.00,Wunderground v.1.15,2013-10-16 06:08:00,
2013-10-15 23:13:00,58.4,39.8,29.88,West,277,0.0,0.0,50,0.00,,,0.00,Wunderground v.1.15,2013-10-16 06:13:00,
2013-10-15 23:18:00,58.4,40.3,29.88,West,277,0.0,0.0,51,0.00,,,0.00,Wunderground v.1.15,2013-10-16 06:18:00,
2013-10-15 23:23:00,58.4,39.8,29.88,West,277,0.0,0.0,50,0.00,,,0.00,Wunderground v.1.15,2013-10-16 06:23:00,
2013-10-15 23:28:00,58.9,39.8,29.88,West,277,0.0,1.0,49,0.00,,,0.00,Wunderground v.1.15,2013-10-16 06:28:00,
2013-10-15 23:33:00,59.6,40.4,29.88,West,277,0.0,0.0,49,0.00,,,0.00,Wunderground v.1.15,2013-10-16 06:33:00,
2013-10-15 23:38:00,59.9,40.1,29.88,West,277,0.0,2.0,48,0.00,,,0.00,Wunderground v.1.15,2013-10-16 06:38:00,
2013-10-15 23:43:00,60.4,40.6,29.88,West,277,0.0,1.0,48,0.00,,,0.00,Wunderground v.1.15,2013-10-16 06:43:00,
2013-10-15 23:48:00,60.9,41.1,29.88,West,277,0.0,1.0,48,0.00,,,0.00,Wunderground v.1.15,2013-10-16 06:48:00,
2013-10-15 23:53:00,61.2,40.8,29.88,West,277,0.0,0.0,47,0.00,,,0.00,Wunderground v.1.15,2013-10-16 06:53:00,
2013-10-15 23:58:00,61.5,41.1,29.88,West,277,0.0,2.0,47,0.00,,,0.00,Wunderground v.1.15,2013-10-16 06:58:00,